Погода в Чуеве-Алабушке

Россия / Тамбовская область     51°51′14″N   42°05′59″E
темп.,
°C
ветер,
м/с
пор.,
м/с
влажн.,
%
обл.,
%
осадки,
мм/ч
давл.,
гПа
погр.,
м
15 апреля, чт
чт1500:00+11вюв49628 0.0 1017136
03:00+9вюв366963 0.0 101685
06:00+9вюв477496 0.0 1016105
09:00+14вюв465493 0.0 1015351
12:00+19юв4539100 0.0 1014869
15:00+20ююв353497 0.0 10141690
18:00+16зюз585991 0.0 1014328
21:00+12зюз117871 0.1 101510
16 апреля, пт
пт1600:00+11всв2280100 0.1 101610
03:00+11в1181100 0.1 101610
06:00+10юв1182100 0.0 101710
09:00+14ююз226897 0.1 1017397
12:00+17ююз335162 0.0 10181182
15:00+19ю243933 0.0 10172114
18:00+17ююз34448 0.0 1017108
21:00+13зюз015196 0.0 101810
17 апреля, сб
сб1700:00+12всв2253100 0.0 101813
03:00+10в227197 0.2 101820
06:00+10юв2380100 0.3 101749
09:00+11сз1276100 0.6 1018220
12:00+12ююв2577100 1.6 1018605
15:00+8юз4789100 5.3 1019494
18:00+8юз2389100 2.8 1019206
21:00+7юв238789 4.1 102051
18 апреля, вс
вс1800:00+6юв3596100 0.2 1020112
03:00+5ююз229588 0.3 102046
06:00+5всв229393 0.0 102044
09:00+10в337186 0.0 1019538
12:00+13вюв445156 0.3 10181655
15:00+13юв2347100 0.3 10181640
18:00+11ююв4567100 0.5 1018283
21:00+8ююв2586100 3.1 1019258
19 апреля, пн
пн1900:00+8в2493100 4.9 1018295
03:00+7ссв4693100 8.0 1018388
06:00+7св6994100 1.1 1018641
09:00+6св61094100 1.9 1019631
12:00+7всв71289100 0.2 1020704
15:00+7всв81286100 0.2 1022717
18:00+6всв6128599 0.0 1023794
21:00+6всв5128312 0.0 1024612